Total_Precipitation_Accumulation
1.73 1.93 2.24 2.63 3.33 3.94 4.53 4.63 4.79 4.20 3.51 3.00 2.59 2.41 2.17 1.91 1.82 1.69 1.51 1.40 1.26 1.20 1.33 1.22 1.12 1.11 1.15 1.14 1.28 1.38 1.37 1.15 1.34 1.50 1.06 0.75 0.58 0.50 0.41 0.40 0.46 0.50 0.57
1.79 2.17 2.70 3.02 2.99 3.40 4.02 4.03 3.67 3.35 2.86 2.40 2.17 2.00 1.89 1.68 1.50 1.29 1.17 1.07 1.03 1.05 1.08 1.04 0.92 0.91 0.95 0.93 1.01 1.13 1.12 0.99 1.24 1.40 1.31 0.97 0.75 0.58 0.40 0.41 0.42 0.48 0.61
1.62 2.03 2.51 2.87 2.79 3.03 3.08 2.65 2.36 2.30 2.19 1.92 1.80 1.75 1.68 1.48 1.20 0.95 0.82 0.78 0.78 0.77 0.73 0.72 0.73 0.79 0.78 0.81 0.87 1.02 1.13 1.00 1.01 1.23 1.37 1.13 0.85 0.73 0.56 0.54 0.59 0.65 0.75
1.06 1.35 1.62 2.00 2.20 2.20 2.09 1.94 1.81 1.74 1.83 1.76 1.59 1.47 1.20 1.02 0.84 0.70 0.71 0.71 0.65 0.59 0.55 0.55 0.64 0.70 0.73 0.80 0.73 0.78 0.94 1.00 0.90 0.98 1.08 1.11 1.13 1.07 0.81 0.60 0.57 0.65 0.71
0.66 0.81 0.92 1.12 1.35 1.49 1.52 1.43 1.60 1.68 1.66 1.57 1.46 1.40 1.16 0.93 0.78 0.74 0.78 0.74 0.67 0.59 0.51 0.49 0.50 0.59 0.66 0.72 0.73 0.76 0.79 0.85 0.83 0.83 0.87 0.94 1.05 1.04 0.99 0.76 0.59 0.59 0.58
0.49 0.59 0.60 0.68 0.80 0.90 0.99 1.06 1.21 1.41 1.43 1.36 1.29 1.26 1.16 0.97 0.79 0.70 0.68 0.63 0.58 0.55 0.51 0.49 0.50 0.51 0.52 0.56 0.63 0.67 0.71 0.76 0.77 0.77 0.83 0.91 0.90 0.89 1.01 0.90 0.75 0.69 0.62
0.36 0.45 0.46 0.46 0.52 0.57 0.65 0.74 0.85 0.99 1.08 1.12 1.10 1.08 1.11 0.96 0.78 0.60 0.56 0.51 0.44 0.43 0.46 0.47 0.53 0.59 0.59 0.58 0.59 0.63 0.69 0.74 0.79 0.78 0.81 0.88 0.91 0.92 1.01 0.98 0.82 0.76 0.79
0.26 0.27 0.29 0.31 0.36 0.35 0.43 0.51 0.56 0.64 0.74 0.89 1.00 0.91 0.92 0.80 0.68 0.69 0.60 0.48 0.38 0.40 0.48 0.53 0.56 0.59 0.63 0.64 0.71 0.73 0.76 0.81 0.83 0.80 0.91 0.95 0.90 0.99 1.05 1.12 1.14 1.02 1.00
0.17 0.17 0.18 0.18 0.22 0.24 0.28 0.34 0.47 0.57 0.59 0.63 0.77 0.82 0.79 0.73 0.72 0.73 0.65 0.52 0.44 0.38 0.42 0.49 0.59 0.60 0.61 0.66 0.75 0.78 0.82 0.89 0.91 0.94 1.03 1.08 1.05 1.05 1.04 1.17 1.27 1.31 1.26
0.15 0.15 0.13 0.13 0.18 0.21 0.25 0.34 0.43 0.53 0.62 0.61 0.60 0.63 0.74 0.76 0.79 0.76 0.62 0.55 0.49 0.45 0.44 0.45 0.51 0.54 0.56 0.63 0.76 0.81 0.87 1.00 1.05 1.04 1.05 1.12 1.14 1.19 1.18 1.19 1.27 1.39 1.47
0.12 0.11 0.10 0.12 0.18 0.21 0.26 0.32 0.40 0.56 0.68 0.62 0.62 0.68 0.76 0.79 0.79 0.88 0.80 0.63 0.57 0.51 0.44 0.39 0.41 0.43 0.45 0.51 0.66 0.82 0.94 1.05 1.09 1.09 1.12 1.14 1.23 1.25 1.16 1.21 1.26 1.35 1.48
0.13 0.12 0.12 0.15 0.20 0.26 0.30 0.35 0.43 0.53 0.60 0.63 0.66 0.68 0.74 0.75 0.72 0.75 0.79 0.72 0.60 0.52 0.48 0.45 0.43 0.37 0.35 0.44 0.58 0.73 0.90 1.03 1.13 1.17 1.19 1.08 1.09 1.18 1.20 1.22 1.24 1.26 1.40
0.20 0.18 0.18 0.24 0.24 0.27 0.35 0.40 0.47 0.53 0.58 0.70 0.71 0.66 0.66 0.61 0.59 0.61 0.63 0.66 0.66 0.66 0.61 0.55 0.50 0.49 0.51 0.57 0.64 0.71 0.83 0.98 1.07 1.11 1.09 1.03 1.06 1.03 1.13 1.18 1.17 1.17 1.17
0.23 0.19 0.21 0.25 0.30 0.33 0.39 0.43 0.50 0.55 0.62 0.63 0.61 0.60 0.61 0.62 0.66 0.67 0.65 0.64 0.64 0.67 0.66 0.61 0.62 0.66 0.71 0.72 0.72 0.72 0.77 0.81 0.86 0.91 0.89 0.86 0.91 0.95 1.02 1.03 1.04 1.08 1.13
0.19 0.16 0.17 0.23 0.34 0.40 0.40 0.42 0.48 0.52 0.59 0.66 0.64 0.58 0.57 0.61 0.66 0.68 0.68 0.67 0.65 0.65 0.74 0.75 0.77 0.80 0.78 0.73 0.77 0.78 0.70 0.74 0.70 0.66 0.68 0.70 0.77 0.82 0.89 0.86 0.90 0.99 1.05
0.24 0.22 0.20 0.22 0.30 0.36 0.37 0.35 0.39 0.47 0.55 0.63 0.70 0.72 0.67 0.62 0.65 0.69 0.68 0.69 0.68 0.73 0.81 0.81 0.82 0.82 0.71 0.70 0.70 0.70 0.66 0.68 0.67 0.64 0.62 0.59 0.64 0.65 0.69 0.72 0.77 0.86 0.94
0.25 0.25 0.28 0.30 0.31 0.36 0.35 0.35 0.34 0.42 0.58 0.67 0.69 0.79 0.87 0.80 0.84 0.86 0.82 0.81 0.82 0.88 0.92 0.98 0.97 0.98 0.97 0.83 0.70 0.64 0.62 0.65 0.67 0.70 0.70 0.54 0.46 0.55 0.61 0.70 0.69 0.68 0.73
0.27 0.28 0.27 0.28 0.30 0.33 0.36 0.37 0.39 0.44 0.58 0.70 0.74 0.86 1.00 0.95 0.97 0.96 0.95 0.99 1.06 1.09 1.14 1.17 1.12 1.10 1.03 0.87 0.67 0.58 0.51 0.55 0.60 0.66 0.70 0.67 0.60 0.59 0.63 0.70 0.71 0.67 0.64
0.30 0.28 0.29 0.29 0.31 0.37 0.39 0.43 0.53 0.63 0.72 0.81 0.92 1.02 1.14 1.19 1.19 1.18 1.20 1.25 1.33 1.38 1.42 1.46 1.41 1.33 1.24 1.00 0.73 0.61 0.54 0.60 0.63 0.68 0.69 0.69 0.63 0.54 0.47 0.55 0.64 0.67 0.67
0.29 0.31 0.36 0.36 0.37 0.42 0.48 0.54 0.67 0.84 0.97 0.99 1.00 1.07 1.24 1.33 1.36 1.36 1.43 1.48 1.54 1.58 1.61 1.51 1.40 1.33 1.30 1.17 0.89 0.75 0.71 0.78 0.81 0.89 0.86 0.75 0.69 0.60 0.48 0.54 0.63 0.63 0.64
0.32 0.36 0.40 0.46 0.50 0.56 0.65 0.76 0.84 0.94 0.97 0.98 1.01 1.10 1.31 1.55 1.58 1.64 1.64 1.64 1.65 1.70 1.70 1.64 1.56 1.48 1.42 1.30 0.95 0.81 0.83 0.90 0.94 0.88 0.88 0.82 0.72 0.56 0.46 0.45 0.53 0.55 0.61
0.36 0.38 0.41 0.45 0.52 0.62 0.76 0.86 0.89 0.90 0.96 1.00 1.06 1.20 1.43 1.53 1.62 1.76 1.77 1.84 1.84 1.77 1.72 1.73 1.63 1.57 1.51 1.28 1.02 0.83 0.84 0.95 1.08 1.06 1.01 0.98 0.84 0.66 0.54 0.45 0.42 0.45 0.50
0.40 0.43 0.45 0.49 0.54 0.64 0.80 0.94 0.96 0.97 0.99 1.00 1.06 1.17 1.29 1.37 1.49 1.55 1.52 1.56 1.64 1.64 1.64 1.63 1.59 1.57 1.61 1.43 1.06 0.87 0.83 0.91 1.06 1.20 1.26 1.11 0.95 0.83 0.69 0.63 0.56 0.51 0.50
0.50 0.50 0.49 0.52 0.55 0.59 0.74 0.88 0.92 0.95 0.96 0.94 0.94 1.04 1.19 1.24 1.31 1.42 1.44 1.51 1.56 1.60 1.66 1.68 1.60 1.58 1.66 1.60 1.27 1.02 0.90 0.87 0.92 1.00 1.03 0.97 0.93 0.85 0.75 0.66 0.57 0.49 0.50
0.42 0.43 0.43 0.46 0.51 0.58 0.73 0.84 0.90 0.97 1.02 0.99 0.94 0.99 1.08 1.18 1.24 1.36 1.44 1.45 1.46 1.41 1.43 1.46 1.43 1.45 1.54 1.47 1.22 1.05 0.95 0.89 0.90 0.95 1.01 1.01 1.01 0.92 0.83 0.75 0.69 0.66 0.66
0.39 0.41 0.44 0.47 0.48 0.53 0.63 0.73 0.89 1.06 1.12 1.06 0.99 0.95 0.96 1.05 1.11 1.20 1.20 1.10 1.07 1.01 0.98 1.00 0.95 0.95 1.11 1.13 0.92 0.80 0.82 0.81 0.78 0.83 0.91 0.97 1.00 0.95 0.87 0.83 0.78 0.77 0.75